Date_and_time,latitude,longitude,wind_speed,RelWindDirFrom,WindDirFrom,air_pressure,air_temperature,relative_humidity,Temp,platform_speed_wrt_ground,air_pressure_at_mean_sea_level,platform_orientation
2019-06-29 00:00,50.63045,-96.9807766666667,5.0,5.6,23,993.04,24.6,61,22.90,0.0,1018.73,90.0
2019-06-29 00:10,50.630455,-96.980775,4.5,5.4,25,992.97,24.7,64,22.98,0.0,1018.65,90.0
2019-06-29 00:20,50.6304566666667,-96.980775,3.9,4.5,16,993.04,24.9,62,22.99,0.0,1018.71,90.0
2019-06-29 00:30,50.6304433333333,-96.98077,4.5,5.4,15,993.04,24.8,61,22.99,0.0,1018.71,90.0
2019-06-29 00:40,50.63045,-96.98077,4.3,5.7,13,992.98,24.8,57,22.96,0.0,1018.65,90.0
2019-06-29 00:50,50.6304516666667,-96.9807683333333,5.0,6.4,27,993.04,24.8,64,22.95,0.0,1018.72,90.0
2019-06-29 01:00,50.630455,-96.9807683333333,6.4,7.5,22,993.06,24.3,66,23.02,0.0,1018.75,41.3
2019-06-29 01:10,50.630455,-96.98077,5.7,7.3,21,993.12,24.1,71,23.06,0.0,1018.81,41.3
2019-06-29 01:20,50.630455,-96.98077,4.7,5.7,15,993.16,24.1,72,23.14,0.0,1018.85,41.3
2019-06-29 01:30,50.6304533333333,-96.98077,4.6,5.4,15,993.12,24.3,70,23.20,0.0,1018.80,41.3
2019-06-29 01:40,50.6304533333333,-96.98077,4.6,5.1,21,993.04,24.1,69,23.22,0.0,1018.72,41.3
2019-06-29 01:50,50.63046,-96.98078,4.2,5.0,34,993.01,23.9,70,23.38,0.0,1018.71,41.3
2019-06-29 02:00,50.6304566666667,-96.9807583333333,3.9,4.5,50,993.01,23.8,73,23.35,0.0,1018.71,90.0
2019-06-29 02:10,50.63047,-96.98078,4.3,5.3,41,993.01,23.7,73,23.27,0.0,1018.71,90.0
2019-06-29 02:20,50.6304683333333,-96.9807816666667,5.6,7.2,33,993.04,23.7,72,23.33,0.0,1018.74,90.0
2019-06-29 02:30,50.6304566666667,-96.9807716666667,6.5,7.4,33,993.03,23.7,71,23.37,0.0,1018.73,90.0
2019-06-29 02:40,50.6304533333333,-96.9807866666667,6.6,7.5,33,993.06,23.7,71,23.50,0.0,1018.76,90.0
2019-06-29 02:50,50.6304516666667,-96.9807766666667,6.8,7.9,33,993.04,23.6,73,23.50,0.0,1018.77,90.0
2019-06-29 03:00,50.6304516666667,-96.980775,7.6,8.4,32,993.01,23.6,72,23.49,0.0,1018.74,0.0
2019-06-29 03:10,50.6304516666667,-96.9807733333333,8.1,9.3,35,993.00,23.6,73,23.52,0.0,1018.73,0.0
2019-06-29 03:20,50.6304516666667,-96.9807733333333,7.5,8.5,49,993.02,23.6,73,23.55,0.0,1018.75,0.0
2019-06-29 03:30,50.6304516666667,-96.9807733333333,7.5,9.0,49,993.05,23.5,74,23.54,0.0,1018.78,0.0
2019-06-29 03:40,50.6304516666667,-96.9807733333333,9.3,11.4,45,992.94,23.6,70,23.50,0.0,1018.68,0.0
2019-06-29 03:50,50.6304516666667,-96.9807716666667,10.9,12.1,36,992.88,23.6,68,23.46,0.0,1018.62,0.0
2019-06-29 04:00,50.630455,-96.980785,10.3,11.7,33,992.89,23.6,67,23.45,0.0,1018.64,270.0
2019-06-29 04:10,50.6304516666667,-96.980775,10.2,11.8,31,992.83,23.5,66,23.48,0.0,1018.59,270.0
2019-06-29 04:20,50.6304533333333,-96.9807766666667,9.7,11.5,33,992.80,23.5,65,23.48,0.0,1018.55,270.0
2019-06-29 04:30,50.630455,-96.980775,9.3,10.7,34,992.81,23.4,66,23.45,0.0,1018.56,270.0
2019-06-29 04:40,50.6304633333333,-96.98076,8.7,10.4,38,992.83,23.3,68,23.39,0.0,1018.60,270.0
2019-06-29 04:50,50.6304316666667,-96.98077,9.5,11.3,39,992.83,23.3,66,23.34,0.0,1018.60,270.0
2019-06-29 05:00,50.6304483333333,-96.980765,9.9,11.3,42,992.83,23.4,64,23.37,0.0,1018.59,228.3
2019-06-29 05:10,50.63045,-96.98077,9.4,11.8,46,992.86,23.3,64,23.44,0.0,1018.62,228.3
2019-06-29 05:20,50.6304483333333,-96.98077,7.8,9.5,48,992.98,23.2,66,23.46,0.0,1018.76,228.3
2019-06-29 05:30,50.6304283333333,-96.9807516666667,7.4,8.4,48,992.96,23.1,69,23.48,0.0,1018.73,228.3
2019-06-29 05:40,50.6304466666667,-96.9807633333333,7.9,9.6,44,992.95,23.0,68,23.50,0.0,1018.72,228.3
2019-06-29 05:50,50.6304216666667,-96.980755,7.6,8.7,42,993.03,23.0,71,23.52,0.0,1018.82,228.3
2019-06-29 06:00,50.6304516666667,-96.98077,8.1,9.8,46,993.01,22.9,71,23.52,0.0,1018.80,90.0
2019-06-29 06:10,50.6304416666667,-96.98076,7.5,8.8,52,993.01,22.9,71,23.52,0.0,1018.80,90.0
2019-06-29 06:20,50.6304483333333,-96.980765,7.8,9.4,58,993.00,22.9,69,23.52,0.0,1018.79,90.0
2019-06-29 06:30,50.6304483333333,-96.980765,7.5,8.8,62,992.91,22.9,70,23.50,0.0,1018.71,90.0
2019-06-29 06:40,50.6304466666667,-96.980765,9.3,11.6,61,992.90,22.8,65,23.48,0.0,1018.70,90.0
2019-06-29 06:50,50.6304633333333,-96.980775,9.0,10.7,60,992.95,22.9,64,23.46,0.0,1018.75,90.0
2019-06-29 07:00,50.6304533333333,-96.9807783333333,8.9,11.2,63,992.94,22.8,67,23.44,0.0,1018.74,0.0
2019-06-29 07:10,50.6304533333333,-96.98078,10.6,13.0,65,992.83,22.8,64,23.43,0.0,1018.63,0.0
2019-06-29 07:20,50.6304533333333,-96.980775,10.3,12.5,65,992.87,22.8,63,23.42,0.0,1018.68,0.0
2019-06-29 07:30,50.6304516666667,-96.9807733333333,10.2,12.1,68,992.86,22.7,64,23.42,0.0,1018.67,0.0
2019-06-29 07:40,50.6304516666667,-96.9807716666667,9.8,12.5,74,992.83,22.7,64,23.40,0.0,1018.65,0.0
2019-06-29 07:50,50.6304516666667,-96.98077,11.5,13.3,73,992.62,22.6,62,23.38,0.0,1018.44,0.0
2019-06-29 08:00,50.6304516666667,-96.98077,12.0,13.7,74,992.55,22.5,62,23.37,0.0,1018.37,360.0
2019-06-29 08:10,50.6304516666667,-96.98077,12.4,14.9,75,992.42,22.5,62,23.35,0.0,1018.24,360.0
2019-06-29 08:20,50.6304516666667,-96.98077,11.6,13.7,78,992.58,22.5,61,23.33,0.0,1018.41,360.0
2019-06-29 08:30,50.6304433333333,-96.9807733333333,11.2,14.5,80,992.59,22.4,61,23.31,0.0,1018.42,360.0
2019-06-29 08:40,50.6304433333333,-96.98077,10.5,14.1,84,992.49,22.5,60,23.30,0.0,1018.32,360.0
2019-06-29 08:50,50.6304416666667,-96.9807716666667,12.0,15.5,85,992.54,22.5,57,23.30,0.0,1018.36,360.0
2019-06-29 09:00,50.6304433333333,-96.9807733333333,12.9,16.4,89,992.58,22.4,56,23.28,0.0,1018.41,360.0
2019-06-29 09:10,50.6304433333333,-96.9807733333333,12.9,16.4,88,992.51,22.3,56,23.27,0.0,1018.35,360.0
2019-06-29 09:20,50.6304433333333,-96.9807716666667,12.2,14.4,89,992.33,22.1,59,23.25,0.0,1018.17,360.0
2019-06-29 09:30,50.6304433333333,-96.9807733333333,11.1,14.7,91,992.29,22.1,59,23.22,0.0,1018.14,360.0
2019-06-29 09:40,50.6304433333333,-96.9807733333333,12.2,14.9,92,992.12,22.2,57,23.20,0.0,1017.96,360.0
2019-06-29 09:50,50.6304433333333,-96.9807716666667,11.7,14.1,97,992.15,22.2,58,23.18,0.0,1017.99,360.0
2019-06-29 10:00,50.630445,-96.9807883333333,12.5,15.9,101,992.05,22.2,58,23.17,0.0,1017.90,194.5
2019-06-29 10:10,50.6304483333333,-96.9807683333333,12.9,16.1,100,992.10,22.2,56,23.17,0.0,1017.94,194.5
2019-06-29 10:20,50.63044,-96.98076,12.8,14.9,96,992.00,22.0,58,23.16,0.0,1017.86,194.5
2019-06-29 10:30,50.63044,-96.9807616666667,13.6,15.6,99,992.05,21.9,58,23.15,0.0,1017.90,194.5
2019-06-29 10:40,50.6304416666667,-96.9807633333333,13.1,15.2,100,991.92,21.9,58,23.13,0.0,1017.78,194.5
2019-06-29 10:50,50.6304466666667,-96.98077,13.1,15.7,104,991.83,21.9,57,23.13,0.0,1017.69,194.5
2019-06-29 11:00,50.6304383333333,-96.9807516666667,12.8,15.6,110,992.09,22.1,57,23.13,0.0,1017.95,143.4
2019-06-29 11:10,50.6304483333333,-96.9808,13.0,16.0,99,992.05,22.1,57,23.12,0.0,1017.91,143.4
2019-06-29 11:20,50.63045,-96.9807716666667,11.3,14.2,99,992.35,22.1,58,23.11,0.0,1018.23,143.4
2019-06-29 11:30,50.6304483333333,-96.980775,11.3,14.6,113,992.58,22.0,57,23.08,0.0,1018.45,143.4
2019-06-29 11:40,50.6304483333333,-96.9807716666667,10.5,12.1,115,992.77,22.0,57,23.04,0.0,1018.66,143.4
2019-06-29 11:50,50.6304483333333,-96.98077,9.8,11.9,119,992.93,22.0,56,23.04,0.0,1018.82,143.4
2019-06-29 12:00,50.6304483333333,-96.9807683333333,8.2,11.0,131,993.16,21.7,55,23.04,0.0,1019.07,12.6
2019-06-29 12:10,50.6304483333333,-96.9807683333333,6.7,9.3,146,993.14,21.4,55,23.04,0.0,1019.06,12.6
2019-06-29 12:20,50.63045,-96.98077,6.8,9.6,147,992.88,21.3,57,23.03,0.0,1018.81,12.6
2019-06-29 12:30,50.6304716666667,-96.98079,8.4,11.3,138,992.83,21.5,55,23.04,0.0,1018.76,12.6
2019-06-29 12:40,50.6304516666667,-96.9807816666667,8.4,11.2,138,992.94,21.6,57,23.05,0.0,1018.85,12.6
2019-06-29 12:50,50.6304433333333,-96.9807716666667,9.0,11.5,138,992.93,21.5,56,23.05,0.0,1018.84,12.6
2019-06-29 13:00,50.6304483333333,-96.980775,9.5,12.0,136,992.89,21.6,55,23.06,0.0,1018.80,66.4
2019-06-29 13:10,50.6304433333333,-96.9807766666667,9.6,12.0,140,992.95,21.5,55,23.07,0.0,1018.86,66.4
2019-06-29 13:20,50.63044,-96.9807683333333,8.8,11.7,151,993.24,21.5,56,23.09,0.0,1019.17,66.4
2019-06-29 13:30,50.63044,-96.9807666666667,9.6,11.9,146,993.24,21.5,56,23.10,0.0,1019.16,66.4
2019-06-29 13:40,50.63044,-96.9807633333333,9.4,11.8,142,993.12,21.5,55,23.10,0.0,1019.04,66.4
2019-06-29 13:50,50.6304283333333,-96.9807816666667,9.8,11.8,143,993.00,21.5,56,23.10,0.0,1018.93,66.4
2019-06-29 14:00,50.6304383333333,-96.9807483333333,9.3,11.4,134,992.89,21.8,54,23.11,0.0,1018.82,0.0
2019-06-29 14:10,50.630445,-96.980765,8.1,12.0,133,992.98,21.9,55,23.11,0.0,1018.91,0.0
2019-06-29 14:20,50.6304433333333,-96.98077,7.1,10.0,151,993.38,21.5,55,23.11,0.0,1019.33,0.0
2019-06-29 14:30,50.6304433333333,-96.9807683333333,6.2,8.8,153,993.48,21.5,54,23.12,0.0,1019.43,0.0
2019-06-29 14:40,50.6304433333333,-96.98077,5.6,7.2,151,993.43,21.4,54,23.12,0.0,1019.39,0.0
2019-06-29 14:50,50.63044,-96.9807666666667,5.4,6.5,146,993.30,21.4,56,23.13,0.0,1019.25,0.0
2019-06-29 15:00,50.630445,-96.9807616666667,6.7,9.4,150,993.16,21.4,55,23.13,0.0,1019.12,167.4
2019-06-29 15:10,50.630445,-96.9807566666667,8.9,11.4,139,992.84,21.4,58,23.13,0.0,1018.78,167.4
2019-06-29 15:20,50.630445,-96.9807583333333,9.2,11.7,138,992.61,21.4,59,23.14,0.0,1018.54,167.4
2019-06-29 15:30,50.630445,-96.9807566666667,11.1,15.4,147,992.43,21.2,60,23.14,0.0,1018.37,167.4
2019-06-29 15:40,50.630445,-96.9807583333333,13.6,16.9,135,991.82,21.5,60,23.13,0.0,1017.73,167.4
2019-06-29 15:50,50.630445,-96.9807583333333,16.1,19.0,124,991.12,22.0,63,23.13,0.0,1016.98,167.4
2019-06-29 16:00,50.6304466666667,-96.98076,14.9,18.6,136,991.26,21.6,62,23.13,0.0,1017.13,90.0
2019-06-29 16:10,50.6304466666667,-96.98076,15.0,18.2,137,991.08,21.6,65,23.11,0.0,1016.96,90.0
2019-06-29 16:20,50.6304466666667,-96.98076,17.1,20.5,140,990.93,21.6,65,23.10,0.0,1016.82,90.0
2019-06-29 16:30,50.6304466666667,-96.9807616666667,18.0,21.6,142,990.97,21.7,63,23.08,0.0,1016.85,90.0
2019-06-29 16:40,50.6304466666667,-96.9807616666667,18.6,21.9,142,990.59,21.6,64,23.06,0.0,1016.47,90.0
2019-06-29 16:50,50.6304466666667,-96.9807616666667,17.0,21.0,134,989.99,21.8,67,23.04,0.0,1015.84,90.0
2019-06-29 17:00,50.6304466666667,-96.9807616666667,15.6,20.6,132,989.81,21.9,66,23.03,0.0,1015.66,311.7
2019-06-29 17:10,50.6304466666667,-96.9807616666667,14.5,19.8,133,989.95,21.9,66,23.01,0.0,1015.80,311.7
2019-06-29 17:20,50.6304483333333,-96.9807616666667,11.8,14.8,133,989.65,22.0,68,23.01,0.0,1015.50,311.7
2019-06-29 17:30,50.630455,-96.9807716666667,15.9,20.4,135,988.96,21.8,67,22.99,0.0,1014.78,311.7
2019-06-29 17:40,50.6304366666667,-96.980775,17.4,21.7,107,988.13,22.4,68,22.99,0.0,1013.88,311.7
2019-06-29 17:50,50.63044,-96.980765,17.0,21.6,89,987.68,22.4,69,22.98,0.0,1013.44,311.7
2019-06-29 18:00,50.630445,-96.9807683333333,16.2,21.5,82,987.81,22.3,69,22.97,0.0,1013.58,270.0
2019-06-29 18:10,50.6304233333333,-96.9807516666667,13.2,16.4,78,988.85,22.4,66,22.95,0.0,1014.63,270.0
2019-06-29 18:20,50.630445,-96.9807633333333,13.5,17.1,74,988.94,22.5,66,22.96,0.0,1014.72,270.0
2019-06-29 18:30,50.6304466666667,-96.9807683333333,13.9,16.5,73,988.77,22.6,65,22.96,0.0,1014.54,270.0
2019-06-29 18:40,50.630445,-96.9807666666667,11.7,14.5,77,988.86,22.9,63,22.96,0.0,1014.62,270.0
2019-06-29 18:50,50.6304466666667,-96.9807666666667,9.6,11.7,79,988.81,23.2,63,22.97,0.0,1014.54,270.0
2019-06-29 19:00,50.63045,-96.9807966666667,10.5,12.8,70,988.43,23.1,66,22.98,0.0,1014.16,281.8
2019-06-29 19:10,50.6304466666667,-96.980775,11.2,12.9,64,988.04,23.0,68,22.99,0.0,1013.77,281.8
2019-06-29 19:20,50.6304416666667,-96.9807666666667,12.0,13.4,63,987.94,22.9,68,23.00,0.0,1013.67,281.8
2019-06-29 19:30,50.6304416666667,-96.9807533333333,12.0,14.0,64,988.06,22.9,68,23.01,0.0,1013.77,281.8
2019-06-29 19:40,50.6304416666667,-96.98076,11.8,13.5,66,988.17,23.1,67,23.01,0.0,1013.88,281.8
2019-06-29 19:50,50.6304433333333,-96.980765,11.1,12.7,68,988.33,23.2,67,23.00,0.0,1014.04,281.8
2019-06-29 20:00,50.6304366666667,-96.9807666666667,10.2,11.9,71,988.51,23.4,67,23.03,0.0,1014.21,194.5
2019-06-29 20:10,50.6304566666667,-96.980775,9.5,11.2,76,988.68,23.7,66,23.06,0.0,1014.37,194.5
2019-06-29 20:20,50.6304583333333,-96.980775,7.9,10.1,84,988.75,24.0,65,23.06,0.0,1014.43,194.5
2019-06-29 20:30,50.6304233333333,-96.9808033333333,7.2,8.2,100,989.05,24.4,64,23.04,0.0,1014.69,194.5
2019-06-29 20:40,50.630475,-96.9808,6.6,7.8,108,989.02,24.3,68,23.06,0.0,1014.66,194.5
2019-06-29 20:50,50.63046,-96.9807783333333,7.0,8.1,110,988.94,24.1,68,23.05,0.0,1014.59,194.5
2019-06-29 21:00,50.63047,-96.9807733333333,6.7,7.8,110,988.75,23.8,68,23.04,0.0,1014.42,360.0
2019-06-29 21:10,50.630435,-96.9807716666667,6.3,7.7,107,988.55,24.2,67,23.06,0.0,1014.19,360.0
2019-06-29 21:20,50.630445,-96.980775,6.0,7.2,111,988.36,24.4,65,23.10,0.0,1013.99,360.0
2019-06-29 21:30,50.6304533333333,-96.9807933333333,6.3,7.2,107,988.12,24.5,65,23.12,0.0,1013.73,360.0
2019-06-29 21:40,50.6304283333333,-96.9807766666667,6.2,7.1,106,987.87,24.7,63,23.16,0.0,1013.47,360.0
2019-06-29 21:50,50.63044,-96.9807833333333,5.2,6.5,104,987.82,25.2,60,23.21,0.0,1013.38,360.0
2019-06-29 22:00,50.63044,-96.98076,4.7,5.6,112,987.73,25.2,61,23.21,0.0,1013.27,112.7
2019-06-29 22:10,50.63044,-96.9807633333333,5.1,6.6,112,987.61,25.1,61,23.21,0.0,1013.14,112.7
2019-06-29 22:20,50.6304416666667,-96.9807733333333,5.7,6.9,115,987.46,25.0,61,23.35,0.0,1012.97,112.7
2019-06-29 22:30,50.6304416666667,-96.9807716666667,5.7,7.1,132,987.46,24.7,59,23.36,0.0,1012.99,112.7
2019-06-29 22:40,50.6304316666667,-96.9807916666667,6.3,7.6,140,987.26,24.4,59,23.33,0.0,1012.82,112.7
2019-06-29 22:50,50.6304333333333,-96.9807833333333,5.7,7.3,138,987.19,24.6,58,23.37,0.0,1012.74,112.7
2019-06-29 23:00,50.6304366666667,-96.9807833333333,5.6,7.7,140,987.15,24.7,59,23.37,0.0,1012.68,270.0
2019-06-29 23:10,50.630425,-96.9807716666667,5.8,7.4,142,987.19,24.8,58,23.42,0.0,1012.71,270.0
2019-06-29 23:20,50.6304366666667,-96.9807616666667,6.4,7.8,132,987.10,25.3,59,23.52,0.0,1012.58,270.0
2019-06-29 23:30,50.6304383333333,-96.980765,4.8,6.5,112,987.21,25.5,65,23.58,0.0,1012.69,270.0
